Regional Weather Roundup
Issued by NWS Wakefield, VA

Home | Current Version | Previous Version | Graphics & Text | Print | Product List | Glossary On
Versions: 1 2 3 4 5 6 7 8 9 10 11 12 13 14 15 16 17 18 19 20 21 22 23 24 25 26 27 28 29 30 31 32 33 34 35 36 37 38 39 40 41 42 43 44 45 46 47 48 49 50
000
ASUS41 KAKQ 300915
RWRAKQ

REGIONAL WEATHER ROUNDUP
NATIONAL WEATHER SERVICE WAKEFIELD VA
500 AM EDT SAT JUL 30 2016

Note: "fair" indicates few or no clouds below 12,000 feet with no
significant weather and/or obstructions to visibility. * = Denotes
station may not report precipitation (e.g., rain,snow,etc.),
thunder or fog.

VAZ042-051-052>054-056-301000-
NORTHERN VIRGINIA

CITY           SKY/WX    TMP DP  RH WIND       PRES   REMARKS
WASH NATIONAL  MOCLDY    78  74  87 CALM      29.93S
DULLES         MOCLDY    74  71  91 CALM      29.94R
FORT BELVOIR   FAIR      72  70  96 CALM      29.93R FOG
QUANTICO       NOT AVBL
FREDERICKSBRG* FAIR      73  73 100 CALM      29.93R
STAFFORD*      FAIR      69  68  97 CALM      29.97S FOG
WARRENTON      FAIR      73  69  86 CALM      29.93R
CULPEPER*      MOCLDY    73  73 100 CALM      29.95R FOG
MANASSAS*      FAIR      72  72 100 CALM      29.94R
LEESBURG*      FAIR      73  73 100 S3        29.95R
WINCHESTER     FAIR      72  70  94 CALM      29.95R
FRONT ROYAL*   CLOUDY    72  70  94 CALM      29.93S
LURAY*         CLOUDY   N/A N/A N/A CALM      29.96S
$$

VAZ048-049-060>072-079>083-301000-
CENTRAL AND SOUTH CENTRAL VIRGINIA

CITY           SKY/WX    TMP DP  RH WIND       PRES   REMARKS
RICHMOND       FAIR      73  72  96 CALM      29.94R
CHESTERFIELD*  FAIR      72  59  64 CALM      29.95R
PETERSBURG*      N/A    N/A N/A N/A CALM      29.95R FOG
HANOVER        FAIR      72  69  90 CALM      29.95R FOG
TAPPAHANNOCK*  NOT AVBL
QUINTON*       FAIR      72  72 100 CALM      29.93S
CHARLOTTSVILLE FAIR      73  70  90 CALM      29.95R
GORDONSVILLE*  PTSUNNY   72  72 100 CALM      29.94S
ORANGE*          N/A     73  73 100 CALM      29.96R
LOUISA*        FAIR      75  73  94 CALM      29.94R FOG
BUMPASS*       FAIR      70  70 100 CALM      29.94R
FARMVILLE*     CLOUDY   N/A N/A N/A CALM      29.94R
CREWE*         NOT AVBL
FORT PICKETT*  FAIR      73  72  98 CALM      29.95R
CHASE CITY*    FAIR      73  72  95 CALM      29.95R
CLARKSVILLE*   PTSUNNY   73  73 100 CALM      29.94R
SOUTH HILL*    FAIR      72  71  97 CALM      30.00S
LAWRENCEVILLE* FAIR      72  72 100 CALM      29.95R
EMPORIA*       FAIR      70  70 100 CALM      29.95S FOG
$$

VAZ088>098-301000-
SOUTHEAST VIRGINIA

CITY           SKY/WX    TMP DP  RH WIND       PRES   REMARKS
NORFOLK        FAIR      76  72  87 CALM      29.94R
VIRGINIA BEACH FAIR      78  70  76 CALM      29.93S
NORFOLK NAVAL  FAIR      76  72  87 S3        29.95S
WEST POINT*    FAIR      70  69  97 CALM      29.95R
SALUDA*        FAIR      73  73 100 CALM      29.93S
NEWPORT NEWS   FAIR      74  73  97 CALM      29.94R
LANGLEY AFB    FAIR      74  73  95 S5        29.94R
FORT EUSTIS    FAIR      75  75  98 SE2       29.92R
WILLIAMSBURG*  FAIR      75  75 100 CALM      29.95R
HR EXEC AP*    FAIR      70  66  88 CALM      29.97R
FRANKLIN*      FAIR      72  71  95 CALM      29.95R
US460-WAKEFLD  FAIR      72  70  93 CALM      29.94R FOG
$$

VAZ020-022-025-037-045-301000-
WEST CENTRAL AND SOUTHWEST VIRGINIA

CITY           SKY/WX    TMP DP  RH WIND       PRES   REMARKS
STAUNTON*      CLOUDY    70  69  98 CALM      29.99S FOG
WAYNESBORO*    CLOUDY    72  69  90 CALM      29.99S
HOT SPRINGS VA NOT AVBL
LYNCHBURG      FAIR      73  71  93 CALM      29.97F
DANVILLE       FAIR      74  71  91 E3        29.94S
SOUTH BOSTON*  FAIR     N/A N/A N/A S3        29.94F
MARTINSVILLE   MOCLDY    71  69  93 NW3       29.98R
ROANOKE        FAIR      71  70  96 W5        29.99F
BLACKSBURG     FOG       69  69 100 CALM      30.06S VSB 1/4
DUBLIN*        FOG       68  68 100 CALM      30.04S VSB 3/4
MARION*        FOG       67  66  96 W3        30.09R VSB 1/4
HILLSVILLE*    FAIR      66  66 100 CALM      30.05S FOG
RICHLANDS*     FOG       65  65 100 CALM      30.06S VSB<1/4
WISE*          FAIR      64  63  94 CALM      30.07S
ABINGDON*      CLOUDY    68  68 100 CALM      30.05R FOG
$$

MDZ021>025-VAZ099-100-301000-
SOUTHERN MARYLAND AND THE DELMARVA PENINSULA

CITY           SKY/WX    TMP DP  RH WIND       PRES   REMARKS
PATUXENT RIVER NOT AVBL
BAY BRIDGE APT CLEAR     79  77  94 S5        29.92S
LEONARDTOWN    CLEAR     72  70  94 CALM      29.95S
DOVER          CLEAR     74  74 100 S3        29.93R
GEORGETOWN     CLEAR     72  71  97 CALM      29.95R FOG
EASTON         CLEAR     75  75 100 CALM      29.97S
CAMBRIDGE      CLEAR     72  72 100 CALM      29.93R
SALISBURY      NOT AVBL
OCEAN CITY     CLEAR     72  70  93 CALM      29.94S
WALLOPS ISLAND FAIR      76  73  91 CALM      29.94S
ACCOMACK*      NOT AVBL
$$

NCZ012>017-030>032-301000-
NORTH CENTRAL AND EASTERN NORTH CAROLINA

CITY           SKY/WX    TMP DP  RH WIND       PRES   REMARKS
ROANOKE RAPIDS FAIR      70  70 100 CALM      29.94R
RALEIGH        PTCLDY    75  71  87 CALM      29.93S
ELIZABETH CITY CLEAR     74  73  97 CALM      29.94S
AHOSKIE*       CLEAR     71  71  98 CALM      29.94S
EDENTON*       CLEAR    N/A N/A N/A CALM      29.94S
CURRITUCK*     CLEAR     75  75 100 CALM      29.94S
KILL DEVIL HLS CLEAR     75  75 100 CALM      29.93S
MANTEO           N/A     74  74 100 CALM      29.94S
CAPE HATTERAS  CLEAR     77  74  90 E3        29.93S FOG
TARBORO*       FAIR      73  73  98 CALM      29.94S FOG
GOLDSBORO      CLEAR     75  75 100 E3        29.92R
WASHINGTON     CLEAR     74  73  95 CALM      29.94R
GREENVILLE     CLEAR     77  75  94 CALM      29.95S
NEW BERN       CLEAR     76  74  93 CALM      29.94R
WILMINGTON     MOCLDY    79  75  87 CALM      29.93R
$$

VAZ048-301000-
ELSEWHERE

CITY           SKY/WX    TMP DP  RH WIND       PRES   REMARKS
HARRISBURG PA  PTCLDY    73  71  93 CALM      29.94R
BALTIMORE      PTCLDY    73  71  93 CALM      29.93R
ANNAPOLIS      CLEAR     78  73  84 CALM      29.92S
ANDREWS AFB    FAIR      73  70  93 SE3       29.93R
PHILADELPHIA   MOCLDY    74  71  91 E3        29.95R
GREENSBORO     CLOUDY    77  70  79 CALM      29.94S
ROCKY MOUNT    CLEAR     73  73 100 CALM      29.94R
$$

VAZ100-301000-
MARINE

STATION/POSITION TIME  TEMP    WIND        PRES    WAVE   SWELL
                       AIR SEA DIR/SP/G            HT/PER HT/PER
                 (UTC) (F)     (DEG/KT/KT) (MB)    (FT/S) (FT/S)
BRANDYWINE LGT   0848   74     180/  7/  8   N/A
CAPE MAY NJ      0800   73 72  160/  4/  5 1013.3F
LEWES DE         0800   74 72  180/  3/  4 1013.5F
OCEAN-CITY-INLET 0800   75 73  140/  2/  3 1014.1F
WACHAPREAGUE VA  0800   78 84  110/  3/  4 1013.8F
THOMAS POINT MD  0900   81 84  200/  9/ 10 1014.9R
GOOSES REEF MD   0900   83 85  210/  8/ 10 1014.5R   1
COVE POINT MD    0800   80     240/  5/  6 1013.7F
SOLOMONS ISLAND  0800   79 85  200/  4/  5   N/A
BISHOPS HEAD MD  0800   81     130/ 10/ 11 1013.5F
PINEY POINT MD   0800          220/  7/  8   N/A
POTOMAC MD       0900   81 84  210/  6/  8 1012.5R   1
CAMBRIDGE MD     0800   76 87  150/  2/  4 1012.5F
LEWISETTA VA     0800   78 86  220/  4/  5 1012.9F
RAPPAHANNOCK LGT 0800          130/  8/  9 1014.2F
STINGRAY PT      0900   82 86  100/  6/  8 1014.1R   1
YORK RVR RNG VA  0800   82     150/  6/  7 1013.1F
YORKTOWN VA      0800   78 85  180/  2/  3 1013.1F
JAMESTOWN VA     0900   80 89  150/  6/  8   N/A     0
DOMINION TERM VA 0800   80     180/  4/  5 1013.7F
KIPTOPEKE VA     0800      80  100/  4/  5   N/A
CHES BAY BRIDGE  0800   80 82  140/  3/  5 1013.5F
CAPE HENRY VA    0800   79     150/  3/  3   N/A
WILLOUBY STN VA  0800   80      50/  2/  2   N/A
CAPE HENRY BUOY  0812      80                N/A     2/13
1ST LANDING BUOY 0900   80 81  170/  4/  6 1013.5R   1/ 4
CAPE CHARLES BUO 0826      76                N/A     2/ 6
OFFSHORE WE BUOY 0821      82                N/A     2/ 6
64NM E OF VA BCH 0850   80 83   40/  6/  6 1013.5R   2/ 5   2/ 5
DUCK PIER NC     0800   80 70  170/  2/  2 1013.0F
44100 DUCK FRF   0805      81                N/A     2/ 8
44056 DUCK FRF   0811      78                N/A     1/13
OREGON INLET NC  0800   78 77  360/  2/  3 1013.6R
HATTERAS NC      0800   81 83  130/  1/  2 1013.0F
DIAMOND SHLS NC  0850   83 86  340/  2/  4 1013.3S   2/ 7   2/ 7
CAPE LOOKOUT NC  0900   82     260/  5/  6 1013.2R
$$



USA.gov is the U.S. government's official web portal to all federal, state and local government web resources and services.